Location: Audinghen
(50.8518°N, 1.6129°E)
Time: 21:51:44
(UTC+00:00)

Cosmos 2098 Rocket - Pass Details

Date: 07 August 2020
Orbit: 367 x 1184 km, 82.9° (Epoch: 21 September)

Event Time Altitude Azimuth Distance (km) Brightness Sun altitude
Rises 02:48:28 0° 347° (NNW) 2,862 7.0 -13.3°
Reaches altitude 10° 02:50:29 10° 343° (NNW) 2,064 6.2 -13.1°
Maximum altitude 02:55:02 61° 264° (W) 866 3.5 -12.6°
Drops below altitude 10° 03:00:46 10° 185° (S) 2,585 5.8 -12.0°
Enters shadow 03:01:36 - 184° (S) 2,904 6.0 -11.9°
